Regional Weather Roundup
Issued by NWS

Home | Current Version | Previous Version | Text Only | Print | Product List | Glossary On
Versions: 1 2 3 4 5 6 7 8 9 10 11 12 13 14 15 16 17 18 19 20 21 22 23 24 25 26 27 28 29 30 31 32 33 34 35 36 37 38 39 40 41 42 43 44 45 46 47 48 49 50
000
ASUS43 KLOT 020103
RWRIL

ILLINOIS REGIONAL WEATHER ROUNDUP
NATIONAL WEATHER SERVICE CHICAGO/ROMEOVILLE IL
800 PM CDT SUN MAY 01 2016

NOTE: "FAIR" INDICATES FEW OR NO CLOUDS BELOW 12,000 FEET WITH NO
SIGNIFICANT WEATHER AND/OR OBSTRUCTIONS TO VISIBILITY.

* THESE STATIONS ARE NOT UNDER NWS QUALITY CONTROL. THEY ALSO MAY NOT
  REPORT WEATHER SUCH AS PRECIPITATION OR FOG.

ILZ001-002-007-009-015-016-024-020200-
NORTHWEST ILLINOIS

CITY           SKY/WX    TMP DP  RH WIND       PRES   REMARKS
MOLINE         LGT RAIN  50  47  89 NE6       29.99F
STERLING*      CLOUDY    48  48 100 CALM      30.02R
$$

ILZ003-004-008-010-011-017-018-020200-
NORTH CENTRAL ILLINOIS

CITY           SKY/WX    TMP DP  RH WIND       PRES   REMARKS
ROCKFORD       LGT RAIN  50  44  80 NE13      30.01R
FREEPORT*      CLOUDY    49  47  93 N5        30.02R
ROCHELLE*      CLOUDY    46  45  94 SE12      30.03R
DE KALB*       RAIN      46  45  95 NE10      29.99R
$$

ILZ005-006-012>014-019>023-020200-
NORTHEAST ILLINOIS

CITY           SKY/WX    TMP DP  RH WIND       PRES   REMARKS
CHICAGO-OHARE  LGT RAIN  45  43  93 NE9       29.96S
CHICAGO-MIDWAY TSTM      46  42  86 N13       29.96R FOG
AURORA         RAIN      48  45  89 NW3       30.00R FOG
WAUKEGAN       LGT RAIN  45  44  97 N13G20    29.97F
DUPAGE AIRPORT HVY RAIN  46  43  89 NE8       29.97R FOG
WHEELING       LGT RAIN  46  44  93 NE13G22   29.96F
NORTHERLY ISL    N/A     43  41  93 MISG        N/A
NORTHERLY ISL    N/A     43  41  93 MISG        N/A
$$

LMZ740>746-020200-
SOUTHERN LAKE MICHIGAN

STATION/POSITION SKY/WX   TEMP    WIND        PRES    VSBY  WAVE
                          AIR SEA DIR/SP/G                  HT/PER
                          (F)     (DEG/KT/KT) (MB)    (MI)  (FT/S)
SOUTHERN BUOY              42 40   30/ 10/ 12 1015.8          2/ 4
HARRISON CRIB              44      10/ 21/ 22   N/A
BURNHAM HARBOR             44     360/ 12/ 18   N/A
CALUMET HARBOR                    360/ 13/ 17 1013.4F
BURNS HARBOR               46      30/ 16/ 19 1014.2F
MICHIGAN CITY              46      10/ 17/ 18   N/A
ST. JOSEPH                 49 48                N/A           2/ 5
$$

ILZ025>027-034>036-040-047-049-050-058-095>099-020200-
WEST-CENTRAL ILLINOIS

CITY           SKY/WX    TMP DP  RH WIND       PRES   REMARKS
QUINCY         CLOUDY    52  49  89 NW14      30.00R
MACOMB*        CLOUDY    50  50  99 N7        30.01R
PITTSFIELD*    CLOUDY    57  53  86 NW7       30.00R
$$

ILZ028>032-037-038-041>044-048-051>054-059>061-020200-
CENTRAL ILLINOIS

CITY           SKY/WX    TMP DP  RH WIND       PRES   REMARKS
BLOOMINGTON    LGT RAIN  53  53 100 N10       29.97R FOG
DECATUR        CLOUDY    58  54  86 NW13      29.93R FOG
PEORIA         LGT RAIN  52  49  89 NW8       29.98R FOG
SPRINGFIELD    CLOUDY    57  54  89 NW10      29.96R FOG
TAYLORVILLE    NOT AVBL
$$

ILZ033-039-045-046-055>057-062-063-020200-
EAST-CENTRAL ILLINOIS

CITY           SKY/WX    TMP DP  RH WIND       PRES   REMARKS
CHAMPAIGN      MOCLDY    58  56  93 N12       29.91R FOG
MATTOON        PTCLDY    63  58  83 NW20      29.88R
$$

ILZ079-100>102-020200-
SOUTHWEST ILLINOIS

CITY           SKY/WX    TMP DP  RH WIND       PRES   REMARKS
ALTON          PTCLDY    61  55  82 NW7       29.95R
CAHOKIA*       CLEAR     66  45  46 W12       29.95R
SPARTA*        CLEAR     66  53  62 NW8G16    29.94R
$$

ILZ064>066-069>071-074>076-080>082-084>086-088>090-092>094-020200-
SOUTH-CENTRAL ILLINOIS

CITY           SKY/WX    TMP DP  RH WIND       PRES   REMARKS
CARBONDALE     CLEAR     72  58  61 SW7       29.89R
MT. VERNON     MOCLDY    64  57  77 W3        29.90R
SALEM*         LGT RAIN  65  60  85 NW21      29.92R
$$

ILZ067-068-072-073-078-083-087-091-020200-
SOUTHEAST ILLINOIS

CITY           SKY/WX    TMP DP  RH WIND       PRES   REMARKS
LAWRENCEVILLE  MOCLDY    73  60  63 W3        29.84F
FLORA*         MOCLDY    72  62  71 W12       29.89R
HARRISBURG*    CLEAR     73  62  70 SW8       29.88R
ROBINSON*      LGT RAIN  68  63  83 CALM      29.86S
$$

ABBREVIATIONS USED IN REMARKS
   TC - TEMPERATURE IN CELSIUS
  WCI - WIND CHILL INDEX
   HX - HEAT INDEX
  VSB - VISIBILITY
$$





USA.gov is the U.S. government's official web portal to all federal, state and local government web resources and services.